星链-5322 (STARLINK-5322 )

导读

STARLINK-5322是美国SpaceX星链互联网卫星星座的一员,于2023年1月19日发射入轨。星链旨在为全球提供低延迟高速互联网服务,该卫星属于星链批量部署中的一颗,运行在近地轨道,通过星座组网提升全球网络覆盖能力,服务偏远地区与网络基础设施不足区域。

Basic Information
目录编号:
55303
目录名称:
STARLINK-5322
国际标识:
2023-010AL
轨道中心:
EARTH
卫星名称:
星链-5322
卫星全名:
星链-5322 (STARLINK-5322 )
卫星状态:
在轨 (已飞行1324 天)
发射日期:
2023-01-19 UTC
国别 :
美国 (US)
星等 :
--
Orbit Information
数据来源 国际轨道数据
星历时间: 2026-09-04T11:48:03+0800
14小时前
查看轨道信息
半长轴: 6950.195km
偏心率: 0.0002964
轨道倾角: 69.999°
近地点辐角 267.620°
升交点赤经 314.274°
平近点角 92.462°
近地点: 569.997km
远地点: 574.119km
周期: 96.107分钟
每日圈数: 14.983295
Detailed Information
固有亮度:
5
最大亮度:
2.5
卫星平台:
Starlink v1.5
覆盖范围:
全球
运营商:
太空探索技术公司
运营商所在国:
美国
制造商(研发单位):
太空探索技术公司
制造商所在国:
美国
使用方式:
暂无
Satellite Introduction
星链(Starlink)计划是由太空探索技术公司(SpaceX)提出的一个巨型低轨卫星互联网星座项目,计划在2019年至2024年间在太空搭建由约1.2万颗卫星组成的“星链”网络,其中1584颗将部署在地球上空550千米处的近地轨道,并从2020年开始工作。该卫星仍在工作。
2D Orbit Map
3D Orbit Map
Orbit Altitude Analysis Chart
Orbit Inclination Analysis Chart
Orbit Comprehensive Analysis Chart
View Comprehensive Chart
Conjunction Data List
Event ID Objects TCA Miss Dist (km) Collision Risk Probability Collision Risk Index (CRI) Action
CDM_260907-021604-435105-530321
2026-09-07T
02:16:31+0000
0.582 km
远距离
7.995744E-5 中风险 0.73